Ephrata, WA
on Saturday, November 17, 2012

Saturday
Previous Day Next Day
Daily Summary
 ActualAverageRecord
Temperature
Mean Temperature °F 36°F  
Max Temperature 47°F 44°F 63°F (1976)
Min Temperature 38°F 29°F 12°F (1961)
Degree Days
Heating Degree Days 22 29  
Month to date heating degree days 402 430  
Since 1 July heating degree days 897 1011  
Moisture
Dew Point 39°F   
Average Humidity 88    
Maximum Humidity 100    
Minimum Humidity 76    
Precipitation
Precipitation 0.05 in 0.04 in 0.41 in (1985)
Month to date precipitation 0.62 0.56  
Year to date precipitation 6.48 6.11  
Wind
Wind Speed 5 mph   
Max Wind Speed 12 mph   
Max Gust Speed 15 mph   
Visibility 8 miles   
Events Rain   

Key: T is trace of precipitation, MM is missing value
Source: NWS Daily Summary
Time(PST)TemperatureDew PointHumidity Pressure Visibility Wind DirectionWind SpeedGust SpeedPrecipitationEvents Conditions
12:53 AM 37.9°F 35.1°F 89% 29.91 in 10.0 miles WNW 3.5 mph - N/A   Overcast
1:08 AM 37.4°F 33.8°F 87% 29.88 in 10.0 miles WNW 6.9 mph - N/A   Overcast
1:53 AM 39.0°F 35.1°F 86% 29.88 in 10.0 miles North 4.6 mph - N/A   Overcast
2:53 AM 39.9°F 36.0°F 86% 29.87 in 10.0 miles Calm Calm - N/A   Overcast
3:53 AM 39.0°F 36.0°F 89% 29.85 in 10.0 miles NNW 4.6 mph - N/A   Overcast
4:53 AM 39.0°F 36.0°F 89% 29.83 in 10.0 miles Calm Calm - N/A   Overcast
5:53 AM 39.9°F 36.0°F 86% 29.81 in 10.0 miles North 5.8 mph - N/A   Overcast
6:53 AM 39.0°F 36.0°F 89% 29.79 in 10.0 miles NNE 4.6 mph - N/A   Overcast
7:14 AM 39.2°F 35.6°F 87% 29.77 in 8.0 miles NNE 3.5 mph - 0.00 in Rain Light Rain
7:53 AM 39.0°F 37.0°F 93% 29.78 in 8.0 miles NE 4.6 mph - 0.00 in   Overcast
8:53 AM 39.9°F 37.9°F 93% 29.75 in 8.0 miles NNE 4.6 mph - 0.00 in   Overcast
9:02 AM 39.2°F 37.4°F 93% 29.73 in 8.0 miles NNE 4.6 mph - N/A   Overcast
9:19 AM 39.2°F 37.4°F 93% 29.73 in 5.0 miles NNE 3.5 mph - 0.02 in Rain Light Rain
9:53 AM 41.0°F 37.9°F 89% 29.73 in 9.0 miles North 6.9 mph - 0.03 in Rain Light Rain
10:49 AM 42.8°F 39.2°F 87% 29.67 in 10.0 miles NNE 8.1 mph - 0.00 in   Overcast
10:53 AM 43.0°F 39.9°F 89% 29.69 in 10.0 miles North 9.2 mph - 0.00 in   Overcast
11:01 AM 42.8°F 39.2°F 87% 29.67 in 10.0 miles North 8.1 mph - N/A   Overcast
11:32 AM 44.6°F 39.2°F 81% 29.65 in 10.0 miles North 6.9 mph - N/A   Overcast
11:53 AM 45.0°F 39.9°F 82% 29.66 in 10.0 miles North 5.8 mph - N/A   Overcast
12:53 PM 46.0°F 39.9°F 79% 29.62 in 10.0 miles Calm Calm - N/A   Mostly Cloudy
1:53 PM 46.0°F 41.0°F 83% 29.61 in 10.0 miles Calm Calm - 0.01 in   Overcast
2:02 PM 44.6°F 41.0°F 87% 29.59 in 10.0 miles SW 6.9 mph - N/A   Overcast
2:25 PM 44.6°F 41.0°F 87% 29.57 in 10.0 miles SW 3.5 mph - N/A   Overcast
2:53 PM 45.0°F 41.0°F 86% 29.59 in 10.0 miles Calm Calm - 0.00 in   Overcast
3:28 PM 44.6°F 41.0°F 87% 29.56 in 9.0 miles Calm Calm - 0.00 in   Overcast
3:43 PM 44.6°F 41.0°F 87% 29.55 in 9.0 miles Calm Calm - 0.00 in   Mostly Cloudy
3:53 PM 44.1°F 41.0°F 89% 29.57 in 8.0 miles Calm Calm - 0.00 in   Mostly Cloudy
4:53 PM 42.1°F 39.9°F 92% 29.57 in 7.0 miles SSW 3.5 mph - N/A   Mostly Cloudy
5:06 PM 42.8°F 41.0°F 93% 29.55 in 7.0 miles SSW 4.6 mph - N/A   Mostly Cloudy
5:53 PM 43.0°F 39.9°F 89% 29.59 in 7.0 miles SW 10.4 mph - N/A   Overcast
6:53 PM 42.1°F 39.0°F 89% 29.59 in 5.0 miles WNW 6.9 mph - 0.00 in Rain Light Rain
7:09 PM 42.8°F 39.2°F 87% 29.55 in 7.0 miles Calm Calm - 0.00 in Rain Light Rain
7:53 PM 41.0°F 39.0°F 93% 29.61 in 7.0 miles South 6.9 mph - 0.00 in Rain Light Rain
8:53 PM 41.0°F 39.9°F 96% 29.62 in 6.0 miles SSW 8.1 mph - 0.00 in   Overcast
9:02 PM 41.0°F 39.2°F 93% 29.61 in 5.0 miles SSW 10.4 mph - N/A   Overcast
9:27 PM 41.0°F 39.2°F 93% 29.60 in 4.0 miles South 5.8 mph - 0.01 in Rain Light Rain
9:53 PM 39.9°F 39.0°F 97% 29.65 in 4.0 miles SW 8.1 mph - 0.01 in   Overcast
11:53 PM 39.0°F 37.0°F 93% 29.71 in 8.0 miles SW 9.2 mph - N/A   Clear
Moon Phase
Nov. 17 Nov. 20 Nov. 28 Dec. 06 Dec. 13
Sunrise:07:06 AM (PST) Moon Rise:10:54 AM (PST)11/17
Sunset:04:19 PM (PST) Moon Set:08:37 PM (PST)11/17

Copyright © 2014 The Weather Underground, Inc.